Location: La Oliva
(42.2466°N, 2.9955°E)
Time: 06:36:31
(UTC+00:00)

Cosmos 1140 Rocket - Pass Details

Date: 22 April 2021
Orbit: 745 x 767 km, 74.1° (Epoch: 07 May)

Event Time Altitude Azimuth Distance (km) Brightness Sun altitude
Rises 20:11:09 0° 197° (SSW) 3,174 6.5 -16.3°
Reaches altitude 10° 20:13:29 10° 197° (SSW) 2,253 5.7 -16.7°
Maximum altitude 20:18:36 88° 108° (ESE) 751 3.4 -17.5°
Drops below altitude 10° 20:23:45 10° 20° (NNE) 2,268 6.1 -18.2°
Sets 20:26:07 0° 21° (NNE) 3,198 6.9 -18.6°
